1288915230183,1.42725
1288915290183,1.42891
1288915350183,1.43330
1288915410183,1.43938
1288915470183,1.46252
1288915530183,1.47029
1288915590183,1.44631
1288915650183,1.43717
1288915710183,1.44839
1288915770183,1.41940
1288915830183,1.42361
1288915890183,1.40200
1288915950183,1.41793
1288916010183,1.40800
1288916070183,1.40138
1288916130183,1.40237
1288916190183,1.39628
1288916250183,1.40309
1288916310183,1.40187
1288916370183,1.39908
1288916430183,1.39378
1288916490183,1.37790
1288916550183,1.37683
1288916610183,1.38950
1288916670183,1.38479
1288916730183,1.39585
1288916790183,1.38906
1288916850183,1.38785
1288916910183,1.39212
1288916970183,1.39278
1288917030183,1.39454
1288917090183,1.39520
1288917150183,1.39354
1288917210183,1.39438
1288917270183,1.38530
1288917330183,1.38434
1288917390183,1.38329
1288917450183,1.38669
1288917510183,1.38422
1288917570183,1.39265
1288917630183,1.39016
1288917690183,1.38405
1288917750183,1.37774
1288917810183,1.38722
1288917870183,1.37933
1288917930183,1.37122
1288917990183,1.37161
1288918050183,1.36892
1288918110183,1.37073
1288918170183,1.36953
1288918230183,1.36887
1288918290183,1.39000
1288918350183,1.38224
1288918410183,1.39038
1288918470183,1.39335
1288918530183,1.39940
1288918590183,1.42257
1288918650183,1.43554
1288918710183,1.44464
1288918770183,1.44688
1288918830194,1.45029
1288918890194,1.44493
1288918950194,1.45791
1288919010194,1.44707
1288919070194,1.45678
1288919130194,1.45580
1288919190194,1.46184
1288919250194,1.48671
1288919310194,1.49021
1288919370194,1.49641
1288919430194,1.49939
1288919490194,1.51687
1288919550194,1.53582
1288919610194,1.53148
1288919670194,1.53243
1288919730194,1.53783
1288919790194,1.52683
1288919850194,1.51482
1288919910194,1.49572
1288919970194,1.47948
1288920030194,1.48440
1288920090194,1.47135
1288920150194,1.47005
1288920210194,1.45612
1288920270194,1.45851
1288920330194,1.46016
1288920390194,1.45855
1288920450194,1.44201
1288920510194,1.44915
1288920570194,1.45205
1288920630194,1.44771
1288920690194,1.44884
1288920750194,1.45464
1288920810194,1.44025
1288920870194,1.44295
1288920930194,1.45726
1288920990194,1.44429
1288921050194,1.44702
1288921110194,1.44340
1288921170194,1.44873
1288921230194,1.44826
1288921290194,1.44255
1288921350194,1.45305
1288921410194,1.45173
1288921470194,1.44386
1288921530194,1.45591
1288921590194,1.45804
1288921650194,1.38677
1288921710194,1.45916
1288921770194,1.47342
1288921830194,1.47899
1288921890194,1.47270
1288921950194,1.47034
1288922010194,1.46724
1288922070194,1.46962
1288922130194,1.47795
1288922190194,1.47810
1288922250194,1.48187
1288922310194,1.47963
1288922370194,1.47661
1288922430204,1.48055
1288922490204,1.48166
1288922550204,1.48601
1288922610204,1.49237
1288922670204,1.48495
1288922730204,1.49251
1288922790204,1.49303
1288922850204,1.48815
1288922910204,1.49363
1288922970204,1.49321
1288923030204,1.49674
1288923090204,1.49730
1288923150204,1.49890
1288923210204,1.50505
1288923270204,1.50316
1288923330204,1.50228
1288923390204,1.50367
1288923450204,1.49180
1288923510204,1.50465
1288923570204,1.49031
1288923630204,1.50019
1288923690204,1.50752
1288923750204,1.50585
1288923810204,1.49045
1288923870204,1.49709
1288923930204,1.48642
1288923990204,1.49354
1288924050204,1.48780
1288924110204,1.49331
1288924170204,1.49692
1288924230204,1.50934
1288924290204,1.49525
1288924350204,1.50490
1288924410204,1.49817
1288924470204,1.50628
1288924530204,1.50860
1288924590204,1.51774
1288924650204,1.52493
1288924710204,1.51896
1288924770204,1.50872
1288924830204,1.50537
1288924890204,1.52210
1288924950204,1.51835
1288925010204,1.53128
1288925070204,1.51971
1288925130204,1.50765
1288925190204,1.51897
1288925250204,1.53755
1288925310204,1.53332
1288925370204,1.51523
1288925430204,1.52909
1288925490204,1.52481
1288925550204,1.52232
1288925610204,1.53608
1288925670204,1.52412
1288925730204,1.51777
1288925790204,1.53239
1288925850204,1.54506
1288925910204,1.53336
1288925970204,1.51705
1288926030214,1.52328
1288926090214,1.52437
1288926150214,1.51279
1288926210214,1.51676
1288926270214,1.52205
1288926330214,1.53918
1288926390214,1.52741
1288926450214,1.52332
1288926510214,1.51770
1288926570214,1.53524
1288926630214,1.52908
1288926690214,1.53207
1288926750214,1.53125
1288926810214,1.52482
1288926870214,1.52470
1288926930214,1.52954
1288926990214,1.53052
1288927050214,1.54512
1288927110214,1.53349
1288927170214,1.53076
1288927230214,1.53969
1288927290214,1.52724
1288927350214,1.52637
1288927410214,1.53201
1288927470214,1.53509
1288927530214,1.54027
1288927590214,1.52923
1288927650214,1.53777
1288927710214,1.51517
1288927770214,1.53286
1288927830214,1.51707
1288927890214,1.53613
1288927950214,1.51891
1288928010214,1.53115
1288928070214,1.52625
1288928130214,1.51771
1288928190214,1.51975
1288928250214,1.52410
1288928310214,1.52927
1288928370214,1.51658
1288928430214,1.50793
1288928490214,1.51239
1288928550214,1.51777
1288928610214,1.50786
1288928670214,1.50463
1288928730214,1.50120
1288928790214,1.50013
1288928850214,1.50132
1288928910214,1.48965
1288928970214,1.48413
1288929030214,1.48208
1288929090214,1.48891
1288929150214,1.47297
1288929210214,1.47878
1288929270214,1.47618
1288929330214,1.46231
1288929390214,1.46799
1288929450214,1.44351
1288929510214,1.45513
1288929570214,1.45559
1288929630225,1.43781
1288929690225,1.45817
1288929750225,1.44148
1288929810225,1.42747
1288929870225,1.43378
1288929930225,1.43379
1288929990225,1.43233
1288930050225,1.42261
1288930110225,1.43100
1288930170225,1.42300
1288930230225,1.42191
1288930290225,1.41720
1288930350225,1.41525
1288930410225,1.40428
1288930470225,1.41358
1288930530225,1.42249
1288930590225,1.40304
1288930650225,1.39291
1288930710225,1.40525
1288930770225,1.40634
1288930830225,1.40907
1288930890225,1.39108
1288930950225,1.39153
1288931010225,1.39185
1288931070225,1.40349
1288931130225,1.38559
1288931190225,1.40311
1288931250225,1.39728
1288931310225,1.39976
1288931370225,1.40298
1288931430225,1.40035
1288931490225,1.39690
1288931550225,1.38763
1288931610225,1.37429
1288931670225,1.37902
1288931730225,1.39349
1288931790225,1.38442
1288931850225,1.38361
1288931910225,1.38697
1288931970225,1.38951
1288932030225,1.38777
1288932090225,1.38415
1288932150225,1.38289
1288932210225,1.37086
1288932270225,1.37736
1288932330225,1.38537
1288932390225,1.37552
1288932450225,1.37930
1288932510225,1.37672
1288932570225,1.37647
1288932630225,1.38077
1288932690225,1.36430
1288932750225,1.37555
1288932810225,1.37270
1288932870225,1.37453
1288932930225,1.38385
1288932990225,1.37709
1288933050225,1.38260
1288933110225,1.36805
1288933170225,1.37083
1288933230235,1.37035
1288933290235,1.37626
1288933350235,1.37469
1288933410235,1.36070
1288933470235,1.37563
1288933530235,1.36012
1288933590235,1.36594
1288933650235,1.36575
1288933710235,1.35696
1288933770235,1.36157
1288933830235,1.36922
1288933890235,1.36354
1288933950235,1.37209
1288934010235,1.36311
1288934070235,1.36060
1288934130235,1.36587
1288934190235,1.36000
1288934250235,1.36829
1288934310235,1.41316
1288934370235,1.37012
1288934430235,1.35728
1288934490235,1.35493
1288934550235,1.35937
1288934610235,1.36671
1288934670235,1.36008
1288934730235,1.36108
1288934790235,1.35351
1288934850235,1.36073
1288934910235,1.36785
1288934970235,1.36562
1288935030235,1.35889
1288935090235,1.36208
1288935150235,1.35113
1288935210235,1.35241
1288935270235,1.35224
1288935330235,1.35613
1288935390235,1.36274
1288935450235,1.35381
1288935510235,1.34665
1288935570235,1.34452
1288935630235,1.34696
1288935690235,1.34369
1288935750235,1.34729
1288935810235,1.34847
1288935870235,1.35101
1288935930235,1.35604
1288935990235,1.34232
1288936050235,1.35456
1288936110235,1.34517
1288936170235,1.34811
1288936230235,1.34140
1288936290235,1.33842
1288936350235,1.34976
1288936410235,1.35560
1288936470235,1.34740
1288936530235,1.35696
1288936590235,1.35123
1288936650235,1.35063
1288936710235,1.34305
1288936770235,1.34369
1288936830245,1.35498
1288936890245,1.34077
1288936950245,1.33827
1288937010245,1.34359
1288937070245,1.33982
1288937130245,1.34395
1288937190245,1.35341
1288937250245,1.35397
1288937310245,1.34869
1288937370245,1.32953
1288937430245,1.34017
1288937490245,1.33663
1288937550245,1.35651
1288937610245,1.34210
1288937670245,1.33717
1288937730245,1.35356
1288937790245,1.33229
1288937850245,1.33937
1288937910245,1.35070
1288937970245,1.35220
1288938030245,1.35053
1288938090245,1.34991
1288938150245,1.35199
1288938210245,1.34503
1288938270245,1.34144
1288938330245,1.36746
1288938390245,1.33790
1288938450245,1.34078
1288938510245,1.34513
1288938570245,1.34849
1288938630245,1.33924
1288938690245,1.34073
1288938750245,1.34723
1288938810245,1.34900
1288938870245,1.34237
1288938930245,1.34041
1288938990245,1.33306
1288939050245,1.33708
1288939110245,1.34137
1288939170245,1.33950
1288939230245,1.34146
1288939290245,1.35026
1288939350245,1.34912
1288939410245,1.34225
1288939470245,1.33758
1288939530245,1.34865
1288939590245,1.34790
1288939650245,1.34429
1288939710245,1.35163
1288939770245,1.35257
1288939830245,1.33461
1288939890245,1.33365
1288939950245,1.33557
1288940010245,1.33172
1288940070245,1.32380
1288940130245,1.33579
1288940190245,1.34670
1288940250245,1.34027
1288940310245,1.33420
1288940370245,1.33608
1288940430256,1.33338
1288940490256,1.33460
1288940550256,1.33862
1288940610256,1.32111
1288940670256,1.33020
1288940730256,1.33805
1288940790256,1.33856
1288940850256,1.33587
1288940910256,1.33382
1288940970256,1.34343
1288941030256,1.33612
1288941090256,1.33570
1288941150256,1.32627
1288941210256,1.32573
1288941270256,1.33162
1288941330256,1.33197
1288941390256,1.32979
1288941450256,1.36484
1288941510256,1.33337
1288941570256,1.33790
1288941630256,1.34105
1288941690256,1.33074
1288941750256,1.34325
1288941810256,1.33405
1288941870256,1.32930
1288941930256,1.34016
1288941990256,1.32683
1288942050256,1.33335
1288942110256,1.38603
1288942170256,1.33345
1288942230256,1.33514
1288942290256,1.32765
1288942350256,1.33706
1288942410256,1.34178
1288942470256,1.33989
1288942530256,1.34956
1288942590256,1.33476
1288942650256,1.33388
1288942710256,1.33813
1288942770256,1.34735
1288942830256,1.33467
1288942890256,1.34341
1288942950256,1.32245
1288943010256,1.33928
1288943070256,1.34301
1288943130256,1.33131
1288943190256,1.33668
1288943250256,1.33356
1288943310256,1.35066
1288943370256,1.34468
1288943430256,1.33959
1288943490256,1.33177
1288943550256,1.34111
1288943610256,1.31982
1288943670256,1.32872
1288943730256,1.34346
1288943790256,1.33413
1288943850256,1.34648
1288943910256,1.33628
1288943970256,1.33758
1288944030267,1.33357
1288944090267,1.32528
1288944150267,1.35325
1288944210267,1.35016
1288944270267,1.33743
1288944330267,1.34079
1288944390267,1.34259
1288944450267,1.34494
1288944510267,1.34172
1288944570267,1.34174
1288944630267,1.34161
1288944690267,1.34897
1288944750267,1.34477
1288944810267,1.34716
1288944870267,1.35375
1288944930267,1.39190
1288944990267,1.35226
1288945050267,1.33331
1288945110267,1.33627
1288945170267,1.34196
1288945230267,1.34282
1288945290267,1.34424
1288945350267,1.32988
1288945410267,1.33756
1288945470267,1.34681
1288945530267,1.33353
1288945590267,1.33305
1288945650267,1.33712
1288945710267,1.33759
1288945770267,1.32349
1288945830267,1.32334
1288945890267,1.33943
1288945950267,1.33361
1288946010267,1.33294
1288946070267,1.34412
1288946130267,1.34451
1288946190267,1.32636
1288946250267,1.33472
1288946310267,1.33986
1288946370267,1.33849
1288946430267,1.33205
1288946490267,1.33776
1288946550267,1.33812
1288946610267,1.33800
1288946670267,1.32506
1288946730267,1.33584
1288946790267,1.33909
1288946850267,1.33178
1288946910267,1.33298
1288946970267,1.33817
1288947030267,1.33675
1288947090267,1.33786
1288947150267,1.34195
1288947210267,1.33813
1288947270267,1.32877
1288947330267,1.32874
1288947390267,1.33114
1288947450267,1.34031
1288947510267,1.33484
1288947570267,1.34562
1288947630278,1.32841
1288947690278,1.34032
1288947750278,1.33360
1288947810278,1.32530
1288947870278,1.33052
1288947930278,1.33725
1288947990278,1.32817
1288948050278,1.33599
1288948110278,1.33175
1288948170278,1.34228
1288948230278,1.34393
1288948290278,1.30847
1288948890278,1.32586
1288948950278,1.32781
1288949010278,1.33072
1288949070278,1.33348
1288949130278,1.33105
1288949190278,1.32816
1288949250278,1.32948
1288949310278,1.33517
1288949370278,1.32746
1288949430278,1.33832
1288949490278,1.32713
1288949550278,1.32339
1288949610278,1.33222
1288949670278,1.33443
1288949730278,1.32564
1288949790278,1.33831
1288949850278,1.33887
1288949910278,1.32053
1288949970278,1.32145
1288950030278,1.32926
1288950090278,1.32938
1288950150278,1.32525
1288950210278,1.33326
1288950270278,1.32650
1288950330278,1.32043
1288950390278,1.32621
1288950450278,1.32998
1288950510278,1.33158
1288950570278,1.32893
1288950630278,1.33254
1288950690278,1.32392
1288950750278,1.33200
1288950810278,1.33826
1288950870278,1.32936
1288950930278,1.32593
1288950990278,1.32731
1288951050278,1.32703
1288951110278,1.31672
1288951170278,1.34263
1288951230289,1.34025
1288951290289,1.33354
1288951350289,1.33189
1288951410289,1.32858
1288951470289,1.33026
1288951530289,1.33214
1288951590289,1.33435
1288951650289,1.33146
1288951710289,1.32952
1288951770289,1.32312
1288951830289,1.31501
1288951890289,1.32969
1288951950289,1.33365
1288952010289,1.32355
1288952070289,1.32079
1288952130289,1.32782
1288952190289,1.32196
1288952250289,1.32111
1288952310289,1.32402
1288952370289,1.33478
1288952430289,1.31092
1288952490289,1.32662
1288952550289,1.32076
1288952610289,1.32473
1288952670289,1.33271
1288952730289,1.33592
1288952790289,1.32413
1288952850289,1.32377
1288952910289,1.33342
1288952970289,1.33342
1288953030289,1.32905
1288953090289,1.33545
1288953150289,1.33690
1288953210289,1.34407
1288953270289,1.32180
1288953330289,1.32666
1288953390289,1.33110
1288953450289,1.32597
1288953510289,1.33749
1288953570289,1.33763
1288953630289,1.33196
1288953690289,1.33472
1288953750289,1.33023
1288953810289,1.33492
1288953870289,1.33349
1288953930289,1.32064
1288953990289,1.33271
1288954050289,1.32808
1288954110289,1.33037
1288954170289,1.32163
1288954230289,1.33993
1288954290289,1.33405
1288954350289,1.32790
1288954410289,1.32843
1288954470289,1.32527
1288954530289,1.32929
1288954590289,1.32879
1288954650289,1.33117
1288954710289,1.32493
1288954770289,1.32176
1288954830300,1.33786
1288954890300,1.31442
1288954950300,1.33803
1288955010300,1.32671
1288955070300,1.34177
1288955130300,1.32905
1288955190300,1.32164
1288955250300,1.33281
1288955310300,1.31467
1288955370300,1.32569
1288955430300,1.32963
1288955490300,1.32053
1288955550300,1.33525
1288955610300,1.33799
1288955670300,1.33515
1288955730300,1.32627
1288955790300,1.32601
1288955850300,1.33291
1288955910300,1.32789
1288955970300,1.36407
1288956030300,1.33095
1288956090300,1.33232
1288956150300,1.31145
1288956210300,1.33152
1288956270300,1.32682
1288956330300,1.31784
1288956390300,1.32167
1288956450300,1.33510
1288956510300,1.32764
1288956570300,1.33861
1288956630300,1.32550
1288956690300,1.32981
1288956750300,1.32988
1288956810300,1.32550
1288956870300,1.31633
1288956930300,1.32492
1288956990300,1.32847
1288957050300,1.33437
1288957110300,1.32315
1288957170300,1.33996
1288957230300,1.33023
1288957290300,1.32889
1288957350300,1.33635
1288957410300,1.33189
1288957470300,1.33006
1288957530300,1.32635
1288957590300,1.31717
1288957650300,1.33021
1288957710300,1.33452
1288957770300,1.33474
1288957830300,1.32561
1288957890300,1.32500
1288957950300,1.33426
1288958010300,1.32240
1288958070300,1.33801
1288958130300,1.32706
1288958190300,1.37376
1288958250300,1.33041
1288958310300,1.33096
1288958370300,1.32952
1288958430312,1.31579
1288958490312,1.33507
1288958550312,1.32531
1288958610312,1.33206
1288958670312,1.32831
1288958730312,1.34361
1288958790312,1.33030
1288958850312,1.32623
1288958910312,1.33127
1288958970312,1.33744
1288959030312,1.32036
1288959090312,1.32709
1288959150312,1.32759
1288959210312,1.33146
1288959270312,1.33141
1288959330312,1.32956
1288959390312,1.32173
1288959450312,1.33933
1288959510312,1.32916
1288959570312,1.32982
1288959630312,1.33203
1288959690312,1.32401
1288959750312,1.33366
1288959810312,1.33208
1288959870312,1.33464
1288959930312,1.33488
1288959990312,1.32007
1288960050312,1.33216
1288960110312,1.33176
1288960170312,1.32652
1288960230312,1.32570
1288960290312,1.32428
1288960350312,1.32747
1288960410312,1.25477
1288960470312,1.36211
1288960530312,1.33153
1288960590312,1.32830
1288960650312,1.32662
1288960710312,1.32782
1288960770312,1.33033
1288960830312,1.32431
1288960890312,1.34042
1288960950312,1.33579
1288961010312,1.31855
1288961070312,1.32727
1288961130312,1.32469
1288961190312,1.33504
1288961250312,1.32967
1288961310312,1.31891
1288961370312,1.31841
1288961430312,1.32949
1288961490312,1.32729
1288961550312,1.33168
1288961610312,1.32244
1288961670312,1.33112
1288961730312,1.34256
1288961790312,1.32635
1288961850312,1.33982
1288961910312,1.33904
1288961970312,1.33868
1288962030324,1.32762
1288962090324,1.33546
1288962150324,1.32819
1288962210324,1.32666
1288962270324,1.33604
1288962330324,1.33494
1288962390324,1.33738
1288962450324,1.33895
1288962510324,1.32835
1288962570324,1.34184
1288962630324,1.33909
1288962690324,1.32953
1288962750324,1.32682
1288962810324,1.33120
1288962870324,1.35460
1288962930324,1.33827
1288962990324,1.34461
1288963050324,1.35382
1288963110324,1.36680
1288963170324,1.36708
1288963230324,1.36980
1288963290324,1.37443
1288963350324,1.38123
1288963410324,1.39829
1288963470324,1.38788
1288963530324,1.40944
1288963590324,1.41228
1288963650324,1.42989
1288963710324,1.43394
1288963770324,1.43696
1288963830324,1.45716
1288963890324,1.47276
1288963950324,1.47879
1288964010324,1.47293
1288964070324,1.46209
1288964130324,1.45429
1288964190324,1.45375
1288964250324,1.45413
1288964310324,1.45013
1288964370324,1.44778
1288964430324,1.46795
1288964490324,1.47135
1288964550324,1.46548
1288964610324,1.46108
1288964670324,1.45824
1288964730324,1.45760
1288964790324,1.44933
1288964850324,1.43856
1288964910324,1.43723
1288964970324,1.42898
1288965030324,1.43157
1288965090324,1.43317
1288965150324,1.43633
1288965210324,1.42862
1288965270324,1.42587
1288965330324,1.43102
1288965390324,1.42888
1288965450324,1.42927
1288965510324,1.42378
1288965570324,1.43032
1288965630336,1.43045
1288965690336,1.41516
1288965750336,1.42041
1288965810336,1.42527
1288965870336,1.41730
1288965930336,1.42201
1288965990336,1.40924
1288966050336,1.40391
1288966110336,1.40811
1288966170336,1.39939
1288966230336,1.40288
1288966290336,1.40480
1288966350336,1.40269
1288966410336,1.40859
1288966470336,1.39171
1288966530336,1.40606
1288966590336,1.41027
1288966650336,1.40393
1288966710336,1.40136
1288966770336,1.41084
1288966830336,1.41466
1288966890336,1.40608
1288966950336,1.40663
1288967010336,1.41742
1288967070336,1.41903
1288967130336,1.40675
1288967190336,1.41031
1288967250336,1.41687
1288967310336,1.41725
1288967370336,1.42631
1288967430336,1.43436
1288967490336,1.41798
1288967550336,1.42532
1288967610336,1.42519
1288967670336,1.42096
1288967730336,1.42947
1288967790336,1.42786
1288967850336,1.41498
1288967910336,1.41718
1288967970336,1.42517
1288968030336,1.42381
1288968090336,1.43533
1288968150336,1.43260
1288968210336,1.43028
1288968270336,1.43661
1288968330336,1.42873
1288968390336,1.42458
1288968450336,1.43478
1288968510336,1.42415
1288968570336,1.41828
1288968630336,1.41985
1288968690336,1.42779
1288968750336,1.42391
1288968810336,1.44075
1288968870336,1.43162
1288968930336,1.43210
1288968990336,1.43748
1288969050336,1.43386
1288969110336,1.43823
1288969170336,1.43591
1288969230348,1.44162
1288969290348,1.43860
1288969350348,1.43505
1288969410348,1.42501
1288969470348,1.43954
1288969530348,1.45496
1288969590348,1.43987
1288969650348,1.45434
1288969710348,1.46015
1288969770348,1.46445
1288969830348,1.46429
1288969890348,1.47488
1288969950348,1.46551
1288970010348,1.46619
1288970070348,1.45737
1288970130348,1.46613
1288970190348,1.45591
1288970250348,1.47493
1288970310348,1.48084
1288970370348,1.47886
1288970430348,1.46371
1288970490348,1.47925
1288970550348,1.47602
1288970610348,1.48269
1288970670348,1.48810
1288970730348,1.48268
1288970790348,1.49684
1288970850348,1.48554
1288970910348,1.48949
1288970970348,1.48492
1288971030348,1.48744
1288971090348,1.48879
1288971150348,1.50418
1288971210348,1.49264
1288971270348,1.50568
1288971330348,1.51096
1288971390348,1.50690
1288971450348,1.50512
1288971510348,1.50697
1288971570348,1.49672
1288971630348,1.50821
1288971690348,1.50218
1288971750348,1.51096
1288971810348,1.51540
1288971870348,1.50702
1288971930348,1.51049
1288971990348,1.50905
1288972050348,1.50401
1288972110348,1.51960
1288972170348,1.50670
1288972230348,1.52684
1288972290348,1.51953
1288972350348,1.52622
1288972410348,1.52189
1288972470348,1.52459
1288972530348,1.52714
1288972590348,1.51981
1288972650348,1.52762
1288972710348,1.52420
1288972770348,1.53793
1288972830360,1.53396
1288972890360,1.52475
1288972950360,1.52851
1288973010360,1.53096
1288973070360,1.53165
1288973130360,1.53446
1288973190360,1.53561
1288973250360,1.52792
1288973310360,1.52637
1288973370360,1.53702
1288973430360,1.54502
1288973490360,1.52491
1288973550360,1.53187
1288973610360,1.53199
1288973670360,1.53675
1288973730360,1.53338
1288973790360,1.52835
1288973850360,1.54068
1288973910360,1.54080
1288973970360,1.53794
1288974030360,1.54164
1288974090360,1.54166
1288974150360,1.54625
1288974210360,1.53800
1288974270360,1.53994
1288974330360,1.53732
1288974390360,1.54050
1288974450360,1.53505
1288974510360,1.54725
1288974570360,1.53549
1288974630360,1.53584
1288974690360,1.52293
1288974750360,1.53076
1288974810360,1.54375
1288974870360,1.54158
1288974930360,1.53661
1288974990360,1.54211
1288975050360,1.53381
1288975110360,1.52330
1288975170360,1.52006
1288975230360,1.53240
1288975290360,1.51651
1288975350360,1.52802
1288975410360,1.51172
1288975470360,1.52247
1288975530360,1.51681
1288975590360,1.52109
1288975650360,1.58545
1288975710360,1.50112
1288975770360,1.50818
1288975830360,1.49188
1288975890360,1.51181
1288975950360,1.49354
1288976010360,1.49386
1288976070360,1.48638
1288976130360,1.48600
1288976190360,1.48321
1288976250360,1.47306
1288976310360,1.46697
1288976370360,1.47275
1288976430372,1.45537
1288976490372,1.46869
1288976550372,1.45697
1288976610372,1.46168
1288976670372,1.45554
1288976730372,1.45513
1288976790372,1.45603
1288976850372,1.45486
1288976910372,1.44155
1288976970372,1.44035
1288977030372,1.43556
1288977090372,1.42834
1288977150372,1.44004
1288977210372,1.42182
1288977270372,1.43190
1288977330372,1.43166
1288977390372,1.43071
1288977450372,1.42108
1288977510372,1.42277
1288977570372,1.42737
1288977630372,1.42610
1288977690372,1.43304
1288977750372,1.43227
1288977810372,1.41961
1288977870372,1.42197
1288977930372,1.42789
1288977990372,1.40692
1288978050372,1.42283
1288978110372,1.40857
1288978170372,1.40162
1288978230372,1.40493
1288978290372,1.40644
1288978350372,1.39748
1288978410372,1.40084
1288978470372,1.41047
1288978530372,1.40937
1288978590372,1.39490
1288978650372,1.40942
1288978710372,1.40641
1288978770372,1.40109
1288978830372,1.38855
1288978890372,1.39725
1288978950372,1.38332
1288979010372,1.38277
1288979070372,1.38281
1288979130372,1.38370
1288979190372,1.38331
1288979250372,1.38577
1288979310372,1.38151
1288979370372,1.37175
1288979430372,1.37794
1288979490372,1.37048
1288979550372,1.38076
1288979610372,1.37297
1288979670372,1.36994
1288979730372,1.37663
1288979790372,1.37884
1288979850372,1.37366
1288979910372,1.37844
1288979970372,1.38704
1288980030384,1.36817
1288980090384,1.36210
1288980150384,1.37475
1288980210384,1.36809
1288980270384,1.35487
1288980330384,1.35972
1288980390384,1.35722
1288980450384,1.35270
1288980510384,1.36556
1288980570384,1.35223
1288980630384,1.35327
1288980690384,1.36168
1288980750384,1.35381
1288980810384,1.36398
1288980870384,1.34689
1288980930384,1.35354
1288980990384,1.35257
1288981050384,1.34663
1288981110384,1.35047